Regional Weather Roundup
Issued by NWS

Home | Current Version | Previous Version | Graphics & Text | Print | Product List | Glossary On
Versions: 1 2 3 4 5 6 7 8 9 10 11 12 13 14 15 16 17 18 19 20 21 22 23 24 25 26 27 28 29 30 31 32 33 34 35 36 37 38 39 40 41 42 43 44 45 46 47 48 49 50
000
ASUS43 KLMK 231002
RWRKY
KENTUCKY REGIONAL WEATHER ROUNDUP
NATIONAL WEATHER SERVICE LOUISVILLE KY
500 AM EST SUN NOV 23 2014

NOTE "FAIR" INDICATES FEW OR NO CLOUDS BELOW 12,000 FEET
WITH NO SIGNIFICANT WEATHER AND/OR OBSTRUCTIONS TO VISIBILITY.

KYZ001>023-026-027-061>063-070>075-231100-
WESTERN AND SOUTH CENTRAL KENTUCKY

CITY           SKY/WX    TMP DP  RH WIND       PRES   REMARKS
PADUCAH        MOCLDY    53  45  74 SE9       29.86F
HENDERSON      CLEAR     50  37  62 SE10      29.89F
OWENSBORO      CLOUDY    53  40  61 MISG      29.93F
HOPKINSVILLE   MOCLDY    55  42  61 SE6       29.92F
BOWLING GREEN  MOCLDY    48  37  65 E5        29.96F
GLASGOW        NOT AVBL
$$

KYZ024-025-028>034-038-045-046-053-231100-
NORTH CENTRAL KENTUCKY

CITY           SKY/WX    TMP DP  RH WIND       PRES   REMARKS
LOUISVILLE/SDF CLOUDY    56  38  50 S10       29.99F
LOUISVILLE/LOU MOCLDY    55  38  52 S7        30.00F
FORT KNOX      CLOUDY    54  38  54 SE9       29.97F
$$

KYZ035>037-039>044-047>052-055>060-089>105-231100-
NORTHEAST KENTUCKY

CITY           SKY/WX    TMP DP  RH WIND       PRES   REMARKS
LEXINGTON      CLOUDY    52  39  61 S9        30.04F
COVINGTON      CLOUDY    51  37  58 S10       30.01F
FRANKFORT      CLOUDY    50  39  66 S6        30.01F
$$

KYZ054-064>069-076>088-106>120-231100-
SOUTHEAST KENTUCKY

CITY           SKY/WX    TMP DP  RH WIND       PRES   REMARKS
JACKSON        CLOUDY    52  31  44 VRB3      30.08F
LONDON         PTCLDY    48  33  56 SE6       30.05F
SOMERSET       NOT AVBL
MIDDLESBORO    NOT AVBL
MONTICELLO     MOSUNNY   54  40  59 VRB5      30.04F
$$




USA.gov is the U.S. government's official web portal to all federal, state and local government web resources and services.